When you browse on this site, cookies collect data to enhance your experience and personalize the content and advertising you see.
Visit our Privacy Policy to learn more. By continuing to use the site, you agree to this use of cookies and data.
  • In Hungary
  • List of Countries
  • For 7 days
  • Water Temperature
  • Satellite Maps
  • Weather Map
  • News
  • Weather Widgets
  • user-avatar
    Login

    Hourly Weather Ratnapura

    Today, 19 December, Wednesday

    Time Temperature Precipitation Wind Pressure Humidity
    00:00 +24°C° 0 mm 0 mps 755 mmHg 92%
    01:00 +24°C° 0 mm 0 mps 755 mmHg 92%
    02:00 +23°C° 0 mm 0 mps 755 mmHg 93%
    03:00 +23°C° 0 mm 0 mps 755 mmHg 92%
    04:00 +25°C° 0 mm 1 mps 755 mmHg 92%
    05:00 +25°C° 0 mm 1 mps 755 mmHg 91%
    06:00 +25°C° 0 mm 0 mps 755 mmHg 85%
    07:00 +26°C° 0 mm 0 mps 756 mmHg 78%
    08:00 +28°C° 0 mm 0 mps 756 mmHg 72%
    09:00 +31°C° 0 mm 1 mps 756 mmHg 64%
    10:00 +33°C° 0 mm 1 mps 755 mmHg 57%
    11:00 +35°C° 0 mm 1 mps 755 mmHg 50%
    12:00 +34°C° 0 mm 1 mps 754 mmHg 51%
    13:00 +34°C° 0 mm 1 mps 754 mmHg 52%
    14:00 +35°C° 0 mm 2 mps 753 mmHg 53%
    15:00 +32°C° 0.1 mm 2 mps 753 mmHg 60%
    16:00 +31°C° 0.1 mm 1 mps 753 mmHg 68%
    17:00 +30°C° 0.1 mm 1 mps 753 mmHg 75%
    18:00 +29°C° 0 mm 1 mps 754 mmHg 80%
    19:00 +28°C° 0 mm 1 mps 755 mmHg 85%
    20:00 +25°C° 0 mm 0 mps 755 mmHg 90%
    21:00 +24°C° 0 mm 0 mps 755 mmHg 90%
    22:00 +24°C° 0 mm 0 mps 755 mmHg 91%
    23:00 +24°C° 0 mm 0 mps 755 mmHg 92%

    Tomorrow, 20 December, Thursday

    Time Temperature Precipitation Wind Pressure Humidity
    00:00 +24°C° 0 mm 0 mps 755 mmHg 92%
    01:00 +24°C° 0 mm 0 mps 755 mmHg 93%
    02:00 +24°C° 0 mm 0 mps 754 mmHg 93%
    03:00 +23°C° 0 mm 0 mps 754 mmHg 93%
    04:00 +25°C° 0 mm 1 mps 754 mmHg 93%
    05:00 +25°C° 0 mm 1 mps 754 mmHg 92%
    06:00 +26°C° 0 mm 1 mps 755 mmHg 87%
    07:00 +28°C° 0 mm 1 mps 755 mmHg 82%
    08:00 +29°C° 0 mm 1 mps 756 mmHg 77%
    09:00 +31°C° 0 mm 1 mps 756 mmHg 70%
    10:00 +32°C° 0 mm 1 mps 755 mmHg 63%
    11:00 +34°C° 0 mm 1 mps 755 mmHg 55%
    12:00 +33°C° 0 mm 1 mps 754 mmHg 59%
    13:00 +33°C° 0 mm 1 mps 754 mmHg 63%
    14:00 +32°C° 0 mm 2 mps 753 mmHg 66%
    15:00 +31°C° 0.1 mm 2 mps 753 mmHg 72%
    16:00 +30°C° 0.1 mm 2 mps 753 mmHg 78%
    17:00 +29°C° 0.1 mm 2 mps 753 mmHg 84%
    18:00 +28°C° 0.1 mm 1 mps 754 mmHg 87%
    19:00 +28°C° 0.1 mm 1 mps 754 mmHg 89%
    20:00 +27°C° 0.1 mm 1 mps 755 mmHg 92%
    21:00 +27°C° 0 mm 1 mps 755 mmHg 92%
    22:00 +27°C° 0 mm 1 mps 755 mmHg 92%
    23:00 +27°C° 0 mm 1 mps 755 mmHg 92%

    Day after tomorrow, 21 December, Friday

    Time Temperature Precipitation Wind Pressure Humidity
    00:00 +27°C° 0.1 mm 1 mps 754 mmHg 92%
    01:00 +27°C° 0.1 mm 1 mps 754 mmHg 92%
    02:00 +26°C° 0.1 mm 1 mps 753 mmHg 92%
    03:00 +26°C° 0.1 mm 1 mps 753 mmHg 92%
    04:00 +26°C° 0.1 mm 1 mps 753 mmHg 92%
    05:00 +26°C° 0.1 mm 1 mps 754 mmHg 93%
    06:00 +27°C° 0.1 mm 1 mps 754 mmHg 90%
    07:00 +28°C° 0.1 mm 1 mps 755 mmHg 87%
    08:00 +29°C° 0.1 mm 1 mps 755 mmHg 84%
    09:00 +29°C° 1.1 mm 1 mps 755 mmHg 81%
    10:00 +30°C° 1.1 mm 1 mps 755 mmHg 78%
    11:00 +31°C° 1.1 mm 1 mps 755 mmHg 74%
    12:00 +30°C° 2.6 mm 1 mps 754 mmHg 79%
    13:00 +30°C° 2.6 mm 1 mps 753 mmHg 83%
    14:00 +29°C° 2.6 mm 1 mps 752 mmHg 88%
    15:00 +28°C° 2.8 mm 1 mps 752 mmHg 90%
    16:00 +28°C° 2.8 mm 1 mps 752 mmHg 92%
    17:00 +27°C° 2.8 mm 1 mps 753 mmHg 94%
    18:00 +27°C° 1.5 mm 1 mps 753 mmHg 94%
    19:00 +27°C° 1.5 mm 1 mps 754 mmHg 94%
    20:00 +27°C° 1.5 mm 1 mps 754 mmHg 95%
    21:00 +26°C° 0.3 mm 1 mps 754 mmHg 95%
    22:00 +26°C° 0.3 mm 1 mps 754 mmHg 95%
    23:00 +26°C° 0.3 mm 1 mps 754 mmHg 95%

    22 December, Saturday

    Time Temperature Precipitation Wind Pressure Humidity
    00:00 +26°C° 0.1 mm 1 mps 753 mmHg 95%
    01:00 +26°C° 0.1 mm 1 mps 753 mmHg 95%
    02:00 +26°C° 0.1 mm 1 mps 752 mmHg 95%
    03:00 +26°C° 0.1 mm 1 mps 752 mmHg 94%
    04:00 +25°C° 0.1 mm 1 mps 752 mmHg 94%
    05:00 +25°C° 0.1 mm 1 mps 753 mmHg 94%
    06:00 +27°C° 0 mm 1 mps 753 mmHg 89%
    07:00 +28°C° 0 mm 1 mps 754 mmHg 85%
    08:00 +27°C° 0 mm 0 mps 755 mmHg 80%
    09:00 +31°C° 0.1 mm 1 mps 755 mmHg 75%
    10:00 +32°C° 0.1 mm 1 mps 754 mmHg 69%
    11:00 +33°C° 0.1 mm 1 mps 754 mmHg 64%
    12:00 +32°C° 1.5 mm 1 mps 753 mmHg 69%
    13:00 +32°C° 1.5 mm 2 mps 753 mmHg 74%
    14:00 +31°C° 1.5 mm 2 mps 752 mmHg 79%
    15:00 +30°C° 1.7 mm 1 mps 752 mmHg 83%
    16:00 +29°C° 1.7 mm 1 mps 752 mmHg 86%
    17:00 +29°C° 1.7 mm 1 mps 753 mmHg 89%
    18:00 +28°C° 0.8 mm 1 mps 753 mmHg 91%
    19:00 +27°C° 0.8 mm 1 mps 754 mmHg 93%
    20:00 +27°C° 0.8 mm 1 mps 755 mmHg 95%
    21:00 +26°C° 0 mm 1 mps 754 mmHg 95%
    22:00 +26°C° 0 mm 1 mps 754 mmHg 95%
    23:00 +26°C° 0 mm 1 mps 754 mmHg 95%

    23 December, Sunday

    Time Temperature Precipitation Wind Pressure Humidity
    00:00 +26°C° 0 mm 1 mps 754 mmHg 95%
    01:00 +26°C° 0 mm 1 mps 753 mmHg 95%
    02:00 +25°C° 0 mm 1 mps 753 mmHg 95%
    03:00 +25°C° 0 mm 1 mps 753 mmHg 95%
    04:00 +25°C° 0 mm 1 mps 753 mmHg 94%
    05:00 +25°C° 0 mm 1 mps 753 mmHg 94%
    06:00 +26°C° 0 mm 1 mps 754 mmHg 89%
    07:00 +28°C° 0 mm 1 mps 755 mmHg 84%
    08:00 +29°C° 0 mm 1 mps 755 mmHg 79%
    09:00 +31°C° 0 mm 1 mps 755 mmHg 71%
    10:00 +32°C° 0 mm 1 mps 755 mmHg 63%
    11:00 +35°C° 0 mm 2 mps 754 mmHg 55%
    12:00 +35°C° 0.4 mm 2 mps 754 mmHg 58%
    13:00 +34°C° 0.4 mm 2 mps 753 mmHg 60%
    14:00 +34°C° 0.4 mm 2 mps 752 mmHg 63%
    15:00 +32°C° 0.8 mm 2 mps 753 mmHg 71%
    16:00 +31°C° 0.8 mm 1 mps 753 mmHg 78%
    17:00 +29°C° 0.8 mm 1 mps 753 mmHg 86%
    18:00 +28°C° 0.2 mm 1 mps 754 mmHg 88%
    19:00 +28°C° 0.2 mm 1 mps 755 mmHg 91%
    20:00 +25°C° 0.2 mm 0 mps 755 mmHg 94%
    21:00 +25°C° 0 mm 0 mps 755 mmHg 94%
    22:00 +25°C° 0 mm 0 mps 755 mmHg 94%
    23:00 +25°C° 0 mm 0 mps 755 mmHg 95%

    24 December, Monday

    Time Temperature Precipitation Wind Pressure Humidity
    00:00 +24°C° 0 mm 0 mps 754 mmHg 95%
    01:00 +26°C° 0 mm 1 mps 754 mmHg 95%
    02:00 +26°C° 0 mm 1 mps 754 mmHg 95%
    03:00 +25°C° 0 mm 1 mps 754 mmHg 95%
    04:00 +25°C° 0 mm 1 mps 754 mmHg 95%
    05:00 +25°C° 0 mm 1 mps 754 mmHg 94%
    06:00 +26°C° 0 mm 1 mps 754 mmHg 89%
    07:00 +28°C° 0 mm 1 mps 755 mmHg 84%
    08:00 +29°C° 0 mm 1 mps 756 mmHg 79%
    09:00 +31°C° 0 mm 1 mps 755 mmHg 71%
    10:00 +33°C° 0 mm 1 mps 755 mmHg 63%
    11:00 +35°C° 0 mm 1 mps 755 mmHg 56%
    12:00 +34°C° 0.1 mm 1 mps 754 mmHg 59%
    13:00 +33°C° 0.1 mm 1 mps 753 mmHg 62%
    14:00 +34°C° 0.1 mm 2 mps 752 mmHg 66%
    15:00 +32°C° 0.6 mm 1 mps 753 mmHg 73%
    16:00 +30°C° 0.6 mm 1 mps 753 mmHg 79%
    17:00 +29°C° 0.6 mm 1 mps 753 mmHg 86%
    18:00 +29°C° 0.3 mm 1 mps 754 mmHg 89%
    19:00 +28°C° 0.3 mm 1 mps 754 mmHg 91%
    20:00 +25°C° 0.3 mm 0 mps 755 mmHg 93%
    21:00 +25°C° 0.1 mm 0 mps 755 mmHg 94%
    22:00 +27°C° 0.1 mm 1 mps 755 mmHg 94%
    23:00 +27°C° 0.1 mm 1 mps 754 mmHg 95%
    Show more